Home > Weather > Leuven > Past weeks

Flag for Belgium Weather for the Past 2 Weeks in Leuven, Belgium

Now
43 °F

Partly sunny.


Feels Like: 36 °F
Forecast: 39 / 44 °F
Wind: 13 mph from West

Location: Brussels National Airport

Current Time: Feb 10, 2016 at 4:54:23 PM

Latest Report: Feb 10, 2016 at 3:50 PM


Visibility: N/A

Pressure: 29.42 "Hg

Humidity: 81%

Dew point: 37 °F

Location of LeuvenLocation

Historic Weather in Leuven — Graph

°F

Leuven Temperature Yesterday

Maximum temperature yesterday: 45 °F (at 12:20 AM)
Minimum temperature yesterday: 36 °F (at 4:20 PM)
Average temperature yesterday: 41 °F

High & Low Weather Summary for the Past Weeks

 TemperatureHumidityPressure
High54 °F (Jan 31, 8:50 PM)100% (Jan 30, 3:20 AM)30.33 "Hg (Jan 30, 3:20 AM)
Low36 °F (Feb 9, 4:20 PM)53% (Jan 28, 1:50 PM)28.88 "Hg (Feb 9, 1:20 PM)
Average46 °F83%29.87 "Hg
* Reported Jan 26 3:20 PM — Feb 10 3:20 PM, Leuven, Weather by CustomWeather, © 2016

Note: Actual official high and low records may vary slightly from our data, if they occured in-between our weather recording intervals... More about our weather records

Advertising

Leuven Weather History for the Previous 24 Hours

 ConditionsComfort  
Time TempWeatherWind HumidityBarometerVisibility
3:20 PM
Wed, Feb 10
43 °FPartly sunny.12 mph81%29.42 "HgN/A
2:50 PM41 °FBroken clouds.12 mph87%29.42 "HgN/A
2:20 PM41 °FSprinkles. Broken clouds.14 mph87%29.39 "HgN/A
1:50 PM43 °FBroken clouds.14 mph87%29.39 "HgN/A
1:20 PM43 °FSprinkles. Partly sunny.13 mph81%29.39 "HgN/A
12:50 PM43 °FSprinkles. Partly sunny.15 mph81%29.36 "HgN/A
12:20 PM43 °FSprinkles. Partly sunny.15 mph87%29.36 "HgN/A
11:50 AM41 °FPartly sunny.15 mph93%29.36 "HgN/A
11:20 AM41 °FLight rain. Partly sunny.15 mph93%29.36 "Hg5 mi
10:50 AM41 °FBroken clouds.14 mph87%29.33 "HgN/A
10:20 AM41 °FBroken clouds.15 mph87%29.33 "HgN/A
9:50 AM39 °FBroken clouds.16 mph93%29.33 "HgN/A
9:20 AM39 °FBroken clouds.17 mph93%29.30 "HgN/A
8:50 AM39 °FDrizzle. Broken clouds.17 mph87%29.30 "HgN/A
8:20 AM37 °FDrizzle. Broken clouds.18 mph93%29.30 "HgN/A
7:50 AM37 °FPartly cloudy.16 mph93%29.27 "Hg6 mi
7:20 AM37 °FPartly cloudy.17 mph93%29.27 "HgN/A
6:50 AM37 °FSprinkles. Partly cloudy.18 mph93%29.27 "HgN/A
6:20 AM37 °FPartly cloudy.17 mph93%29.27 "HgN/A
5:20 AM37 °FPartly cloudy.21 mph93%29.27 "HgN/A
4:50 AM37 °FPartly cloudy.20 mph93%29.27 "HgN/A
4:20 AM37 °FPassing clouds.18 mph93%29.27 "HgN/A
3:50 AM37 °FSprinkles. Passing clouds.17 mph93%29.27 "Hg5 mi
3:20 AM37 °FSprinkles. Passing clouds.18 mph93%29.27 "HgN/A
2:50 AM37 °FPartly cloudy.16 mph93%29.27 "HgN/A
2:20 AM37 °FSprinkles. Passing clouds.20 mph93%29.27 "HgN/A
1:20 AM37 °FPartly cloudy.20 mph93%29.24 "HgN/A
12:50 AM37 °FPassing clouds.18 mph87%29.24 "HgN/A
12:20 AM37 °FPassing clouds.16 mph87%29.24 "HgN/A
11:50 PM
Tue, Feb 9
37 °FPassing clouds.17 mph93%29.24 "HgN/A
11:20 PM37 °FPassing clouds.13 mph93%29.24 "HgN/A
10:20 PM37 °FPassing clouds.14 mph93%29.21 "HgN/A
9:50 PM39 °FPassing clouds.14 mph87%29.21 "HgN/A
9:20 PM39 °FPassing clouds.13 mph87%29.21 "HgN/A
8:50 PM39 °FPassing clouds.14 mph87%29.18 "HgN/A
8:20 PM39 °FPartly cloudy.14 mph93%29.18 "HgN/A
7:50 PM39 °FPartly cloudy.14 mph93%29.15 "HgN/A
7:20 PM39 °FPartly cloudy.15 mph93%29.15 "HgN/A
6:50 PM39 °FSprinkles. Partly cloudy.14 mph93%29.12 "HgN/A
6:20 PM39 °FPartly cloudy.14 mph93%29.12 "HgN/A
5:50 PM37 °FPassing clouds.14 mph93%29.09 "HgN/A
5:20 PM36 °FSprinkles. Partly sunny.16 mph100%29.06 "Hg3 mi
4:20 PM36 °FLight rain. Partly sunny.16 mph93%29.00 "Hg4 mi
Weather by CustomWeather, © 2016

See weather overviewHow to use our weather pages